Home   Weather   Woodstock   Past weeks
Flag for USA

Past Weather in Woodstock, New York, USA — Yesterday and Last 2 Weeks

Now
50 °F

Low clouds.


Feels Like: 48 °F
Forecast: 55 / 43 °F
Wind: 5 mph from North

Location: Dutchess County Airport

Current Time: Apr 8, 2020 at 12:47:24 pm

Latest Report: Apr 8, 2020 at 11:53 am


Visibility: 10 mi

Pressure: 29.56 "Hg

Humidity: 83%

Dew Point: 45 °F

Location of WoodstockLocation

Past Weather in Woodstock — Graph

°F

Woodstock Temperature Yesterday

Maximum temperature yesterday: 68 °F (at 4:53 pm)
Minimum temperature yesterday: 44 °F (at 6:53 am)
Average temperature yesterday: 57 °F

High & Low Weather Summary for the Past Weeks

 TemperatureHumidityPressure
High68 °F (Apr 7, 4:53 pm)93% (Mar 28, 5:53 pm)30.19 "Hg (Mar 28, 5:53 pm)
Low26 °F (Mar 26, 6:53 am)18% (Apr 6, 6:53 pm)29.48 "Hg (Apr 8, 6:05 am)
Average47 °F67%29.92 "Hg
* Reported Mar 24 10:53 am — Apr 8 10:53 am, Woodstock. Weather by CustomWeather, © 2020

Note: Actual official high and low records may vary slightly from our data, if they occured in-between our weather recording intervals... More about our weather records

Woodstock Weather History for the Previous 24 Hours

Scroll right to see more
 ConditionsComfort  
Time TempWeatherWind HumidityBarometerVisibility
10:53 am
Wed, Apr 8
50 °FMostly cloudy.6 mph83%29.56 "Hg5 mi
9:53 am49 °FFog.6 mph86%29.54 "Hg5 mi
8:53 am48 °FMostly cloudy.5 mph89%29.53 "Hg10 mi
7:53 am48 °FMore clouds than sun.5 mph89%29.52 "Hg10 mi
6:53 am48 °FOvercast.5 mph89%29.50 "Hg10 mi
6:14 am48 °FMostly cloudy.6 mph86%29.49 "Hg10 mi
6:05 am48 °FMostly cloudy.6 mph86%29.48 "Hg10 mi
4:53 am48 °FOvercast.No wind86%29.49 "Hg10 mi
3:53 am48 °FMostly cloudy.No wind86%29.52 "Hg10 mi
2:53 am48 °FRain. Overcast.No wind83%29.54 "Hg4 mi
1:53 am50 °FOvercast.3 mph74%29.57 "Hg10 mi
12:53 am54 °FOvercast.3 mph47%29.60 "Hg10 mi
11:53 pm
Tue, Apr 7
55 °FMostly cloudy.3 mph45%29.62 "Hg10 mi
10:53 pm55 °FMostly cloudy.5 mph45%29.65 "Hg10 mi
9:53 pm57 °FClear.No wind36%29.67 "Hg10 mi
8:53 pm60 °FOvercast.5 mph35%29.68 "Hg10 mi
7:53 pm62 °FPassing clouds.6 mph34%29.68 "Hg10 mi
6:53 pm65 °FSunny.5 mph27%29.68 "Hg10 mi
5:53 pm67 °FSunny.12 mph26%29.69 "Hg10 mi
4:53 pm68 °FPassing clouds.9 mph25%29.70 "Hg10 mi
3:53 pm67 °FPassing clouds.15 mph25%29.73 "Hg10 mi
2:53 pm67 °FScattered clouds.16 mph27%29.77 "Hg10 mi
1:53 pm62 °FPassing clouds.8 mph37%29.81 "Hg10 mi
12:53 pm60 °FSunny.No wind35%29.85 "Hg10 mi
Weather by CustomWeather, © 2020

See weather overview

Advertising